Wind_Speed
9 9 8 8 7 7 7 7 6 6 6 6 6 6 6 5 6 6 6 5 5 5 5 4 4 5 6 6 7 6 6 5 5 4 4 4 3 4 4 4 4 3 2
8 8 8 8 8 7 6 6 6 6 6 5 6 6 5 6 6 6 6 6 5 5 5 5 5 5 6 7 7 7 7 7 6 5 4 4 4 4 5 5 4 4 3
8 8 8 8 7 7 6 5 5 5 5 5 5 5 5 6 6 6 6 6 6 6 6 6 5 5 6 6 7 7 7 7 7 6 5 5 5 5 5 5 5 5 4
8 8 8 7 6 6 5 5 5 5 5 5 5 5 5 5 5 6 6 6 6 6 6 6 6 6 6 6 7 7 7 7 7 7 7 6 6 6 5 6 6 6 6
8 9 8 7 6 6 5 5 5 5 6 6 5 5 5 5 5 6 6 7 7 7 7 7 7 6 6 7 7 7 8 7 8 8 7 7 7 7 6 7 7 7 7
9 9 8 7 6 6 6 6 6 6 6 6 6 5 5 5 5 6 6 7 8 8 8 7 6 6 7 7 7 8 8 8 8 8 8 8 7 7 7 8 7 7 7
9 9 8 7 6 6 6 6 6 6 6 7 6 6 6 5 6 6 6 6 7 7 7 7 6 6 6 7 7 8 7 7 8 7 7 8 7 7 7 7 7 7 7
9 9 8 8 7 7 7 6 6 7 6 7 7 7 7 6 7 6 6 7 7 6 6 6 6 6 6 7 7 7 7 8 8 8 8 8 8 8 8 7 7 8 8
9 9 8 7 7 7 7 7 7 7 7 7 7 7 8 7 6 6 7 7 7 7 6 6 6 6 6 6 6 7 7 8 8 7 7 8 9 8 8 8 8 9 9
10 9 8 8 8 7 7 7 7 7 7 7 7 8 8 7 7 6 7 7 7 6 6 6 6 7 7 7 7 7 7 8 8 8 8 8 9 8 8 8 9 9 9
10 9 9 8 8 7 7 8 7 8 8 8 8 8 8 7 7 6 7 7 7 7 7 7 6 7 7 7 7 7 8 9 9 9 10 9 9 9 9 9 9 9 10
9 9 9 8 8 8 8 8 8 8 9 8 9 9 8 7 7 6 7 8 7 7 7 7 7 7 7 8 8 8 9 9 10 10 10 11 11 11 10 10 10 10 10
9 9 8 7 8 9 9 8 9 9 9 8 8 8 8 7 6 6 7 8 8 7 7 7 8 8 7 8 8 7 8 9 9 10 11 11 11 11 11 11 11 11 9
9 9 9 8 8 9 9 8 9 10 9 8 8 8 8 7 7 7 7 7 8 8 8 8 8 8 8 9 9 8 9 10 9 9 10 11 11 12 12 12 11 11 11
11 10 9 9 9 9 9 9 9 9 9 9 9 9 9 9 8 8 8 8 8 8 9 9 9 9 9 9 10 9 9 9 9 10 11 11 12 12 13 12 12 12 12
12 11 11 10 10 10 9 9 10 9 9 8 8 8 9 9 9 10 10 9 10 10 10 10 10 9 9 10 10 9 9 9 10 11 12 12 12 12 12 13 14 14 14
12 11 11 10 10 10 10 10 10 9 9 8 8 9 9 10 10 10 10 10 10 11 10 10 10 10 10 10 10 10 9 10 10 11 11 11 12 12 13 13 14 14 14
13 12 12 11 10 11 10 10 10 9 9 9 9 10 10 11 11 12 11 11 11 11 11 11 11 11 11 10 10 10 10 11 11 11 12 12 12 13 13 14 14 14 14
15 14 12 12 11 11 10 10 10 10 10 9 10 11 11 12 12 12 12 12 12 12 12 12 12 12 11 11 11 11 11 11 12 13 13 14 14 14 14 14 15 15 14
15 14 13 12 11 11 10 10 10 10 10 10 10 10 11 12 12 13 13 13 13 13 12 13 13 12 12 12 12 12 12 13 13 14 14 14 14 14 15 15 15 15 15
14 14 12 11 11 11 11 11 11 11 11 11 11 10 11 12 12 12 13 13 13 13 13 13 13 13 13 13 13 13 13 14 14 15 15 15 15 15 15 15 16 15 16
13 12 12 12 12 12 12 12 11 12 12 12 12 12 12 12 12 13 12 12 12 13 13 14 14 14 14 14 14 15 15 16 16 15 15 15 15 15 15 15 16 16 16
14 12 12 12 12 13 13 12 12 12 13 12 12 12 12 13 13 13 13 13 12 13 14 15 15 15 15 15 15 16 16 17 17 16 16 16 15 16 16 16 16 17 17
16 14 13 13 13 13 14 14 13 13 13 13 12 12 12 13 13 13 13 12 13 14 15 16 15 15 15 15 15 15 16 16 17 17 17 17 17 17 17 17 17 17 18
17 16 15 14 14 14 14 14 14 14 14 14 13 13 13 14 13 13 13 13 13 14 15 15 15 15 16 16 16 16 17 16 17 17 17 17 18 18 18 18 17 17 18
18 18 17 17 16 15 15 14 14 14 15 15 14 14 15 15 15 14 15 15 14 14 15 15 16 16 16 16 17 17 17 17 17 18 18 18 19 19 19 18 18 18 18
Wind_Direction
336 337 330 330 324 309 305 303 301 298 296 294 296 300 292 283 282 285 290 286 278 272 267 267 255 243 233 225 225 233 232 233 236 237 232 227 230 226 216 209 207 214 238
336 337 329 322 320 315 308 304 297 298 300 293 292 297 287 281 282 288 285 280 275 272 269 267 254 242 237 233 236 244 239 240 239 234 235 228 227 236 231 219 224 229 240
330 333 330 321 313 319 315 303 295 298 302 299 295 298 290 286 288 289 283 274 276 272 265 261 259 251 242 241 247 248 245 244 241 233 231 230 233 244 235 234 241 237 240
322 325 324 323 321 316 310 304 297 301 304 301 297 299 293 291 287 289 281 274 272 266 264 265 266 262 253 251 252 249 245 245 241 238 237 240 242 243 238 238 241 239 246
320 320 315 315 317 313 310 305 303 300 304 301 299 300 291 291 289 289 282 273 277 266 263 263 263 264 259 258 253 246 244 245 247 244 238 236 240 236 232 232 239 243 250
321 319 314 308 305 306 307 305 301 301 304 299 294 294 294 287 282 285 287 279 275 272 269 268 266 263 257 259 254 247 243 242 245 239 235 232 235 234 231 231 236 243 250
317 316 312 311 305 304 307 312 307 301 303 303 296 291 291 289 282 287 285 284 282 278 274 266 269 262 255 258 250 248 247 241 239 241 241 232 230 231 233 236 240 244 246
312 310 309 309 307 301 296 299 305 302 300 302 301 299 297 285 285 283 282 283 284 288 279 276 281 267 257 257 257 254 249 242 241 242 239 231 231 234 237 238 240 243 244
315 311 302 301 301 302 302 297 294 294 296 298 297 295 297 290 290 282 274 276 278 279 278 278 282 277 274 270 263 257 251 246 239 235 239 238 237 241 235 235 238 240 241
317 313 306 298 298 301 301 308 302 296 296 297 299 296 300 297 290 284 275 272 273 274 279 283 282 281 280 276 266 263 253 247 240 239 242 243 241 240 237 238 240 243 245
312 314 310 301 299 303 304 306 308 304 302 299 299 298 301 296 289 286 275 277 270 268 276 280 281 281 278 278 272 266 258 249 246 246 246 249 247 243 241 240 246 249 249
307 310 309 303 299 297 302 301 303 305 304 302 299 295 296 291 284 283 279 279 273 271 273 276 276 286 279 278 276 269 263 254 253 252 249 251 251 247 243 243 247 249 248
301 304 304 301 300 295 294 298 300 301 300 300 298 295 293 288 285 289 286 279 275 274 275 278 279 286 288 281 276 273 266 262 257 257 254 248 247 248 247 246 247 247 245
300 300 300 296 297 296 293 295 297 297 295 293 291 291 288 286 282 286 288 283 280 279 274 274 277 286 291 283 280 276 267 260 254 257 252 247 247 251 250 249 252 251 250
297 297 299 299 296 294 294 297 298 298 295 290 287 288 285 285 289 290 287 291 287 283 280 278 281 284 288 286 288 283 268 261 256 253 251 248 248 253 252 252 253 251 249
294 297 295 295 295 292 292 294 296 297 296 296 294 290 287 285 287 288 286 290 283 279 277 275 276 280 282 280 282 285 273 263 259 255 253 252 252 255 256 254 254 256 253
293 294 291 290 288 287 288 292 295 294 291 291 290 288 287 287 285 284 283 285 281 278 279 277 272 273 276 277 280 284 272 261 256 252 252 253 256 258 259 259 258 257 254
289 287 285 286 283 283 286 288 289 287 285 286 285 285 285 284 281 278 278 278 278 279 277 275 273 273 274 275 280 280 270 259 258 256 255 256 256 258 260 261 260 259 257
284 279 278 281 285 286 286 286 285 283 285 285 285 283 283 281 278 275 273 275 274 273 274 273 273 274 275 276 280 279 270 261 260 262 262 259 258 258 258 260 260 259 259
281 281 278 279 282 284 284 284 281 283 284 285 286 285 281 280 280 280 275 273 273 273 274 271 271 270 270 275 277 276 272 265 263 265 265 263 263 262 259 259 258 259 257
282 280 278 279 279 275 278 283 281 281 281 282 282 283 282 282 281 281 276 274 275 274 273 272 270 270 270 273 273 272 271 269 267 266 265 265 264 263 263 260 259 260 254
277 275 273 277 276 276 276 281 280 277 277 278 277 279 280 279 282 281 280 276 278 278 273 271 273 270 269 272 273 270 270 272 272 269 266 264 265 264 263 262 262 260 257
271 273 272 274 274 272 275 280 279 277 276 274 274 277 281 282 281 278 278 277 279 280 276 271 270 268 270 271 270 269 270 272 268 265 264 263 264 263 262 263 262 260 259
269 270 272 273 272 270 272 274 276 277 276 274 273 275 279 283 281 276 280 279 279 278 275 269 268 269 271 269 269 270 272 272 268 263 263 263 263 262 260 261 261 262 261
268 266 268 269 269 270 271 272 273 276 275 273 271 274 277 278 280 279 279 279 278 276 275 269 269 270 270 270 270 271 272 273 266 262 263 264 264 262 259 259 259 258 259
266 267 267 266 266 270 272 271 271 274 274 272 271 273 277 277 275 277 277 279 276 274 274 272 270 270 270 271 272 273 272 270 267 266 264 263 263 262 261 258 258 259 259
Height
5890 5888 5888 5887 5886 5886 5885 5885 5885 5884 5884 5884 5883 5883 5882 5881 5881 5881 5881 5880 5880 5880 5879 5879 5879 5879 5880 5880 5880 5880 5880 5880 5880 5880 5880 5880 5880 5880 5880 5880 5881 5881 5881
5889 5888 5887 5886 5886 5885 5885 5885 5884 5884 5883 5883 5882 5882 5881 5881 5880 5880 5880 5879 5879 5879 5879 5879 5879 5879 5879 5879 5879 5879 5879 5880 5879 5879 5879 5879 5879 5880 5880 5880 5880 5880 5880
5888 5887 5886 5885 5885 5884 5884 5884 5884 5883 5883 5882 5882 5881 5881 5880 5880 5880 5879 5879 5878 5877 5877 5878 5878 5878 5878 5878 5878 5878 5878 5879 5879 5879 5879 5879 5879 5879 5879 5880 5880 5880 5880
5887 5887 5886 5885 5884 5884 5884 5883 5883 5883 5882 5882 5881 5880 5880 5879 5879 5879 5878 5878 5877 5877 5877 5877 5877 5877 5877 5877 5877 5877 5877 5877 5878 5878 5878 5878 5879 5879 5879 5879 5879 5880 5880
5887 5886 5885 5884 5883 5883 5883 5883 5882 5882 5882 5881 5881 5880 5879 5879 5878 5878 5877 5877 5876 5876 5876 5876 5876 5875 5875 5876 5876 5876 5876 5876 5876 5877 5877 5877 5878 5878 5878 5879 5879 5879 5879
5886 5885 5884 5883 5883 5882 5882 5882 5882 5881 5881 5880 5880 5879 5878 5878 5877 5877 5876 5876 5876 5875 5875 5875 5875 5875 5875 5874 5874 5875 5875 5875 5875 5876 5876 5876 5876 5877 5877 5878 5878 5879 5879
5885 5884 5883 5882 5882 5881 5881 5881 5881 5880 5880 5879 5879 5878 5877 5877 5876 5876 5876 5875 5875 5874 5874 5874 5874 5874 5873 5873 5873 5873 5873 5873 5874 5874 5875 5875 5875 5876 5877 5877 5877 5877 5878
5884 5883 5882 5881 5881 5880 5879 5879 5879 5879 5878 5878 5877 5877 5876 5875 5875 5875 5875 5874 5874 5873 5873 5873 5873 5872 5872 5872 5872 5872 5872 5872 5872 5873 5873 5874 5874 5875 5876 5876 5876 5876 5876
5882 5881 5880 5880 5879 5879 5878 5878 5877 5877 5877 5876 5876 5875 5875 5874 5874 5873 5873 5873 5873 5872 5872 5872 5871 5871 5871 5871 5871 5870 5870 5870 5871 5871 5872 5873 5873 5873 5874 5875 5875 5875 5875
5880 5879 5879 5878 5878 5877 5877 5876 5876 5875 5875 5874 5874 5873 5873 5873 5872 5872 5872 5872 5871 5871 5870 5870 5870 5869 5869 5869 5869 5868 5868 5868 5869 5870 5870 5871 5872 5872 5873 5873 5874 5874 5874
5878 5877 5877 5876 5876 5876 5875 5874 5874 5874 5873 5873 5872 5872 5871 5871 5871 5870 5870 5870 5870 5870 5869 5868 5868 5868 5868 5867 5867 5867 5866 5866 5867 5868 5868 5869 5870 5871 5871 5872 5872 5873 5873
5877 5876 5875 5874 5874 5873 5873 5873 5872 5872 5871 5871 5870 5870 5870 5869 5869 5869 5869 5869 5868 5868 5868 5867 5867 5867 5866 5866 5866 5865 5865 5865 5866 5867 5867 5868 5868 5869 5869 5870 5870 5871 5871
5875 5874 5873 5873 5872 5872 5871 5871 5870 5870 5869 5869 5868 5868 5868 5868 5868 5867 5867 5867 5867 5867 5866 5866 5865 5865 5865 5864 5864 5864 5863 5864 5864 5865 5865 5865 5866 5867 5867 5868 5868 5869 5869
5872 5872 5871 5871 5870 5870 5869 5869 5868 5868 5867 5866 5866 5866 5866 5866 5866 5866 5865 5865 5865 5865 5864 5864 5863 5863 5863 5862 5862 5862 5862 5862 5862 5862 5863 5863 5864 5865 5865 5865 5866 5866 5867
5870 5869 5869 5869 5868 5868 5867 5866 5866 5865 5865 5864 5864 5864 5864 5864 5864 5863 5863 5863 5863 5862 5862 5862 5862 5861 5860 5860 5860 5860 5859 5859 5859 5860 5861 5861 5862 5862 5863 5863 5864 5864 5864
5867 5866 5866 5866 5866 5865 5865 5864 5864 5863 5862 5862 5861 5862 5862 5862 5862 5861 5861 5861 5860 5860 5860 5859 5859 5859 5858 5858 5858 5857 5857 5857 5857 5858 5858 5859 5859 5860 5860 5861 5861 5861 5862
5864 5864 5863 5863 5863 5863 5862 5862 5861 5860 5860 5860 5859 5859 5859 5859 5859 5859 5858 5858 5858 5857 5857 5857 5857 5856 5856 5856 5855 5855 5854 5855 5855 5855 5855 5856 5856 5857 5857 5857 5858 5858 5859
5861 5861 5861 5860 5860 5860 5859 5859 5859 5858 5858 5857 5857 5857 5857 5857 5856 5856 5856 5855 5855 5855 5854 5854 5854 5854 5853 5853 5853 5852 5852 5852 5852 5853 5853 5853 5853 5853 5853 5854 5854 5854 5855
5858 5858 5858 5857 5856 5856 5856 5856 5856 5855 5855 5854 5854 5854 5854 5854 5853 5853 5853 5852 5852 5852 5851 5851 5851 5851 5850 5850 5849 5849 5849 5849 5849 5849 5849 5850 5850 5850 5850 5850 5850 5850 5851
5855 5855 5854 5854 5853 5853 5853 5852 5852 5852 5852 5851 5852 5851 5851 5850 5850 5850 5849 5849 5848 5848 5848 5847 5847 5847 5847 5847 5847 5846 5846 5846 5846 5846 5846 5846 5846 5846 5846 5846 5846 5847 5847
5852 5851 5851 5851 5851 5850 5849 5849 5849 5849 5848 5848 5848 5848 5848 5847 5847 5846 5845 5845 5844 5844 5844 5844 5844 5843 5843 5843 5843 5843 5843 5843 5843 5842 5842 5842 5842 5842 5842 5842 5842 5843 5843
5848 5848 5848 5848 5847 5847 5846 5846 5846 5845 5845 5845 5845 5844 5844 5843 5843 5842 5842 5841 5840 5840 5840 5840 5840 5840 5840 5840 5840 5839 5839 5839 5839 5838 5838 5838 5838 5838 5838 5838 5838 5838 5839
5844 5844 5844 5844 5843 5843 5843 5842 5842 5842 5841 5841 5841 5841 5840 5840 5839 5838 5838 5837 5836 5836 5836 5836 5836 5836 5836 5836 5835 5835 5835 5835 5834 5834 5834 5834 5834 5833 5833 5833 5833 5834 5834
5840 5840 5840 5840 5839 5839 5839 5838 5838 5838 5838 5838 5837 5837 5837 5836 5835 5834 5833 5833 5833 5832 5832 5832 5832 5832 5832 5831 5831 5831 5831 5830 5830 5829 5829 5829 5829 5829 5829 5829 5829 5829 5829
5836 5836 5836 5836 5835 5835 5835 5835 5834 5834 5834 5834 5833 5833 5832 5832 5831 5830 5830 5829 5828 5828 5828 5828 5827 5828 5827 5827 5827 5826 5826 5825 5825 5825 5825 5824 5824 5824 5824 5824 5824 5824 5824
5830 5830 5831 5831 5831 5831 5830 5830 5830 5830 5830 5830 5829 5829 5828 5827 5827 5827 5826 5825 5824 5824 5824 5823 5823 5823 5823 5822 5822 5821 5821 5820 5820 5819 5819 5819 5819 5819 5819 5819 5819 5819 5819